Regional Weather Roundup
Issued by NWS Sioux Falls, SD

Home | Current Version | Previous Version | Text Only | Print | Product List | Glossary On
Versions: 1 2 3 4 5 6 7 8 9 10 11 12 13 14 15 16 17 18 19 20 21 22 23 24 25 26 27 28 29 30 31 32 33 34 35 36 37 38 39 40 41 42 43 44 45 46 47 48 49 50
000
ASUS43 KFSD 230502
RWRFSD

WEATHER ROUNDUP FOR SE SOUTH DAKOTA/SW MINNESOTA/NW IOWA
NATIONAL WEATHER SERVICE SIOUX FALLS SD
1100 PM CST WED FEB 22 2017

NOTE: "FAIR" INDICATES FEW OR NO CLOUDS BELOW 12,000 FEET WITH NO
SIGNIFICANT WEATHER AND OR OBSTRUCTIONS TO VISIBILITY.


SDZ038>040-050-052>070-230600-
SOUTHEAST SOUTH DAKOTA

CITY           SKY/WX    TMP DP  RH WIND       PRES   REMARKS
BROOKINGS      CLOUDY    32  29  88 N14       29.87R WCI  22
CHAMBERLAIN    CLOUDY    35  32  90 N10       29.94R WCI  27
HURON          CLOUDY    32  27  81 N14G26    29.94R WCI  22
MADISON        LGT RAIN  32  32 100 N18       29.88R WCI  20
MITCHELL       CLOUDY    34  31  88 N16G25    29.94R WCI  24
SIOUX FALLS    CLOUDY    35  33  92 N9        29.89R WCI  28
WINNER         CLOUDY    37  34  89 NE14      29.91S
YANKTON        CLEAR     37  34  87 NW9       29.87S
$$

MNZ071-072-080-081-089-090-097-098-230600-
SOUTHWEST MINNESOTA

CITY           SKY/WX    TMP DP  RH WIND       PRES   REMARKS
FAIRMONT       CLOUDY    37  35  92 NW17      29.81R
JACKSON          N/A     34  32  93 NW18G26   29.84R WCI  23
LUVERNE        CLOUDY    34  32  93 N13G20    29.86R WCI  25
MARSHALL       CLOUDY    33  30  88 N20G26    29.88R WCI  21
MONTEVIDEO     CLOUDY    34  32  93 N14       29.88R WCI  24
PIPESTONE      CLOUDY    34  28  80 N13G18    29.84S WCI  25
REDWOOD FALLS  CLOUDY    37  32  82 NW8G17    29.84R
TRACY          CLOUDY    34  33  95 NW16G24   29.86R WCI  24
WINDOM         CLOUDY    36  34  93 NW17G23   29.84R
WORTHINGTON    CLOUDY    34  32  92 NW14      29.86R WCI  25
$$

IAZ001>003-012>014-020>022-031-032-NEZ013-014-SDZ071-230600-
NORTHWEST IOWA

CITY           SKY/WX    TMP DP  RH WIND       PRES   REMARKS
CHEROKEE       CLEAR     39  38  95 N7        29.83R
DENISON        CLEAR     43  39  87 CALM      29.79R
ESTHERVILLE    CLOUDY    36  35  96 NW21      29.81R
LE MARS        CLEAR     39  37  93 N10       29.84S
ORANGE CITY    CLEAR     37  37 100 N9        29.83S
SHELDON        MOCLDY    37  37 100 N16       29.82R
SIOUX CITY     PTCLDY    45  37  73 N15       29.82R
SPENCER        CLOUDY    38  35  89 NW20      29.83R
STORM LAKE     CLEAR     39  36  87 N13       29.81R
$$

ABBREVIATIONS USED IN REMARKS
   TC - TEMPERATURE IN CELSIUS
  WCI - WIND CHILL INDEX
   HX - HEAT INDEX
  VSB - VISIBILITY





USA.gov is the U.S. government's official web portal to all federal, state and local government web resources and services.